Location: Bartshausen
(51.8454°N, 9.8167°E)
Time: 22:55:01
(UTC+00:00)

Cosmos 1980 Rocket - Pass Details

Date: 08 November 2025
Orbit: 829 x 848 km, 71.0° (Epoch: 04 December)

Event Time Altitude Azimuth Distance (km) Brightness Sun altitude
Exits shadow 03:28:05 17° 347° (NNW) 2,042 4.1 -27.8°
Drops below altitude 10° 03:30:37 10° 13° (NNE) 2,476 4.8 -27.4°
Sets 03:33:56 0° 33° (NNE) 3,409 5.9 -26.9°
